Theta_e
354 362 367 367 366 365 363 362 361 361 360 361 362 363 362 361 361 362 363 361 360 359 358 356 356 356 356 356 355 356 357 356 355 352 350 350 351 351 352 353 353 346 349
356 361 366 366 366 365 363 362 361 361 359 361 362 362 362 361 360 360 361 360 359 357 357 355 356 356 355 355 354 354 354 355 355 353 350 350 349 350 350 351 349 348 349
357 361 364 365 365 364 362 361 360 361 360 360 362 362 362 361 361 360 359 359 359 356 356 356 356 356 356 356 355 355 356 356 356 355 352 347 345 348 349 349 350 349 349
356 359 361 365 364 363 362 360 360 361 360 361 362 362 362 361 361 360 359 359 358 355 356 356 357 358 358 357 355 355 356 357 357 357 353 351 344 350 350 349 348 348 348
355 359 362 364 363 362 361 360 361 361 360 361 362 362 362 361 360 359 359 359 358 356 356 357 358 359 356 356 356 355 355 355 357 352 345 348 342 350 351 350 349 348 349
356 359 363 363 362 362 361 361 361 361 360 361 362 361 361 360 359 359 358 358 359 357 356 357 358 357 356 356 356 354 354 355 356 344 342 345 340 355 355 353 352 350 350
355 359 360 363 363 362 362 362 361 360 360 361 361 361 360 359 359 358 358 358 359 359 357 356 356 356 356 356 355 354 354 355 347 342 340 340 343 354 356 356 354 352 352
354 358 359 363 362 361 362 361 360 359 360 360 360 360 359 359 358 357 357 357 357 358 358 356 355 354 354 353 352 352 353 354 347 342 339 340 348 355 357 356 355 355 354
354 356 358 358 361 362 360 359 359 359 359 359 359 359 358 359 358 357 356 356 356 355 356 356 354 353 352 351 351 352 353 353 343 341 339 339 354 356 358 357 356 356 356
351 353 353 354 356 357 357 360 359 359 359 358 358 358 357 358 358 357 355 355 356 356 355 354 354 353 352 351 350 351 353 352 343 340 336 336 354 359 359 358 357 357 357
344 347 351 353 353 354 355 358 359 360 359 358 358 358 354 350 352 354 354 355 356 356 355 354 354 353 352 352 351 351 353 343 339 336 334 351 356 360 359 357 357 357 357
336 338 343 345 345 350 355 353 352 354 354 351 351 352 348 344 346 350 350 353 355 355 355 354 354 354 353 344 340 348 345 341 338 335 330 353 355 357 356 353 352 353 354
336 337 337 339 339 338 347 345 344 345 344 344 345 347 345 343 344 346 344 346 345 352 345 348 347 347 343 339 335 332 337 338 337 337 338 353 352 355 355 354 354 354 355
337 337 338 338 338 339 342 341 339 341 340 339 341 345 340 340 342 341 343 341 341 340 339 336 337 338 336 335 332 332 337 337 335 332 341 354 352 355 357 357 356 356 356
337 339 341 341 342 343 338 339 341 340 340 339 340 345 342 340 341 344 343 341 340 337 337 335 336 337 337 339 340 338 338 337 335 340 339 354 351 353 356 358 358 358 359
341 340 344 343 346 345 341 340 344 343 342 342 342 347 346 343 342 345 340 340 340 340 339 339 338 338 337 339 339 342 343 341 343 344 345 345 353 351 354 357 359 359 355
343 343 344 343 346 351 350 346 345 351 346 347 347 348 348 348 350 349 343 341 339 339 337 337 337 337 337 340 340 342 342 344 345 346 346 348 348 352 351 355 357 352 348
344 344 346 347 348 352 352 353 354 351 351 352 351 353 350 350 350 350 346 345 346 343 340 338 333 334 333 333 334 338 341 343 344 345 348 347 347 350 353 354 348 344 347
348 348 348 350 349 353 354 355 354 352 353 352 354 354 354 355 353 350 350 349 348 347 340 337 336 334 333 335 340 342 343 347 346 347 345 345 345 346 348 349 346 342 345
353 352 354 352 354 354 355 353 354 351 351 351 352 352 352 351 352 350 349 348 347 345 341 336 334 335 335 337 343 344 345 347 346 344 343 345 341 339 344 346 344 342 344
353 353 352 351 352 353 351 348 347 346 348 348 347 348 347 349 351 348 349 348 346 342 341 338 339 338 338 337 338 336 339 342 343 343 344 341 341 339 339 341 337 337 339
343 348 352 353 350 350 351 349 346 344 347 347 346 346 348 347 348 347 346 345 344 343 341 340 339 336 328 329 325 335 329 334 337 340 341 336 334 334 336 341 336 335 335
346 348 348 350 351 352 352 351 352 351 348 347 345 343 346 348 347 347 345 347 345 342 340 340 337 331 328 329 329 332 328 323 327 332 334 333 333 331 336 335 341 341 339
342 349 349 350 350 350 351 347 345 344 341 342 345 347 349 350 347 348 344 339 342 342 335 337 336 333 330 327 335 340 338 333 327 323 327 331 332 332 333 331 332 336 340
336 336 347 350 350 350 349 347 345 341 343 342 343 342 343 344 342 347 344 340 339 340 338 337 335 335 338 336 334 333 332 331 329 325 323 324 328 329 330 330 329 331 332
333 336 341 345 343 344 348 347 345 344 344 341 338 336 337 335 336 337 337 336 336 334 333 330 330 331 332 334 332 331 331 330 329 328 326 327 327 330 332 332 331 331 332
Wind_Speed
7 13 20 20 19 19 19 19 18 18 17 16 15 16 16 16 16 15 14 13 13 13 14 14 14 13 14 14 12 10 10 10 9 10 9 8 11 10 9 11 10 9 9
16 12 20 21 20 20 19 18 18 18 17 16 15 15 15 15 14 14 13 12 12 13 14 14 14 13 12 10 8 7 8 7 6 5 6 5 6 9 9 10 10 8 9
16 13 15 20 20 20 19 18 17 18 17 16 14 14 14 14 13 13 12 11 12 12 13 13 13 11 10 8 6 6 6 5 4 3 1 2 2 6 10 9 8 8 7
16 12 13 20 20 19 18 18 17 17 17 16 15 13 13 12 12 12 11 11 11 12 11 12 11 10 8 6 4 4 5 6 5 4 3 6 6 8 9 8 7 7 6
15 13 14 20 19 19 18 17 17 17 17 16 15 13 12 10 10 10 10 9 9 11 10 9 8 8 7 4 2 4 6 7 8 8 5 8 7 10 11 10 7 7 5
15 14 18 20 20 20 19 17 17 16 16 15 15 13 12 11 9 9 10 9 8 9 9 7 6 6 5 3 1 5 6 9 12 6 5 4 8 13 12 12 8 8 7
15 13 14 20 19 20 18 18 17 16 15 15 14 13 12 11 10 8 8 9 8 7 8 6 5 4 3 1 2 6 8 9 6 5 6 1 6 14 13 12 11 9 8
17 13 13 17 19 20 19 17 16 15 14 14 13 12 12 11 9 8 9 8 8 8 7 6 5 4 4 3 4 6 9 10 9 7 6 2 7 15 14 12 11 10 9
16 13 12 14 15 17 18 17 16 15 14 13 13 12 11 11 10 8 8 8 7 8 7 7 6 6 6 6 8 9 9 11 7 6 7 3 12 14 15 13 12 12 11
14 12 10 13 14 10 10 16 16 16 15 14 13 12 10 9 9 8 8 7 7 7 7 7 8 8 8 9 10 11 11 13 7 8 5 4 14 14 15 14 13 11 11
12 11 11 9 10 9 9 10 12 14 13 12 10 10 8 4 5 7 7 9 9 9 8 8 8 9 10 11 12 13 13 5 6 6 4 8 17 17 15 14 14 13 12
12 11 11 10 8 9 9 8 6 8 5 5 6 7 5 6 6 8 9 12 12 10 9 10 11 11 10 5 4 10 5 6 5 7 5 15 16 17 16 16 14 13 11
16 10 11 12 11 10 9 5 3 3 4 4 7 6 6 5 5 5 3 4 5 10 5 6 6 6 6 5 5 5 6 5 5 6 7 15 16 14 15 15 13 12 11
20 17 12 11 10 9 9 8 7 5 5 4 6 8 5 4 4 4 4 6 4 3 5 5 4 7 7 8 8 7 7 6 5 5 4 12 12 14 14 13 13 11 11
20 19 16 15 10 9 11 8 8 8 7 8 7 7 5 4 5 4 5 4 4 4 4 5 6 7 7 8 8 9 7 7 7 4 3 12 14 14 14 14 9 10 11
16 21 19 17 12 12 8 9 8 7 8 7 7 8 9 5 5 3 4 4 4 4 5 5 6 8 7 6 7 6 7 8 7 6 4 5 13 13 14 10 11 10 5
16 20 21 18 14 13 9 8 5 8 8 7 8 9 10 7 6 4 3 2 3 3 5 4 5 4 4 3 5 5 6 7 6 6 5 4 4 9 11 11 9 3 6
17 17 17 15 13 9 8 5 4 3 4 4 5 7 11 8 7 3 2 2 4 4 4 4 4 3 4 4 4 6 6 8 10 8 5 3 2 3 6 11 8 7 12
15 18 15 13 13 9 8 6 3 0 1 1 1 3 5 4 3 4 2 4 3 3 4 4 2 2 3 5 5 8 7 5 6 4 5 4 2 4 4 6 8 11 14
3 11 12 10 10 8 5 5 3 2 1 1 3 3 5 4 4 4 4 4 4 3 4 3 2 2 3 4 5 7 5 4 5 5 6 5 5 3 4 5 5 4 7
17 9 8 10 8 6 3 4 4 3 3 2 3 5 5 3 4 5 4 4 4 4 5 4 1 1 4 14 7 5 6 6 9 8 7 5 5 3 4 5 4 4 5
11 8 9 5 6 5 3 3 3 3 3 4 4 4 7 7 6 5 4 3 4 3 5 5 6 3 2 6 6 13 6 4 7 11 7 5 6 5 5 4 6 7 7
15 9 6 7 7 7 5 2 2 3 2 2 1 3 4 6 4 2 2 6 7 4 3 3 2 2 2 3 5 7 3 5 2 4 6 5 6 4 4 5 6 9 10
8 7 7 6 6 4 5 2 3 2 1 2 2 2 5 3 5 4 5 4 9 5 3 3 2 3 3 3 4 9 11 8 7 6 3 4 5 6 7 5 6 6 10
12 10 9 9 7 6 5 4 2 1 1 2 4 6 8 8 10 9 9 6 6 4 4 5 5 4 3 4 6 4 4 4 5 5 11 5 4 4 4 5 6 8 9
10 10 9 10 7 8 6 6 6 6 5 6 5 5 6 5 4 6 7 5 7 5 6 6 6 6 6 4 4 5 3 3 6 5 5 7 7 5 6 6 7 7 7
Wind_Direction
143 142 134 129 126 123 122 120 120 117 112 104 101 97 96 94 93 94 98 101 102 104 102 98 93 85 76 68 62 60 60 64 74 86 92 96 105 96 73 35 123 95 85
133 141 134 130 129 125 124 123 123 119 116 115 112 104 102 102 102 102 103 103 104 108 107 102 95 88 82 78 71 63 61 59 62 82 98 107 116 115 96 82 95 98 91
126 133 131 129 129 128 128 126 126 121 120 116 112 113 111 111 111 109 109 112 112 111 109 106 100 96 91 81 57 35 34 35 40 35 243 165 176 147 120 113 111 109 107
127 128 131 130 129 128 128 127 127 123 122 120 121 120 117 118 116 115 117 115 114 115 114 110 110 107 99 88 59 3 352 3 353 310 248 229 203 177 138 133 129 129 133
120 127 133 130 128 127 126 129 129 127 127 126 126 125 122 119 119 118 114 114 119 120 121 121 120 114 108 100 51 334 341 338 329 313 242 227 178 180 161 149 156 153 143
119 129 134 132 131 130 130 133 131 129 130 134 136 134 129 125 121 121 121 125 129 129 135 133 125 123 121 111 355 317 326 328 327 309 307 185 170 171 170 164 156 157 167
121 128 132 131 132 131 134 137 135 134 137 138 138 136 133 133 135 136 134 137 143 142 144 147 150 153 150 176 298 308 312 315 309 304 310 211 175 167 171 170 164 174 187
126 128 134 135 136 136 138 137 135 136 139 142 142 141 141 143 144 149 152 157 161 160 164 166 174 186 206 241 265 280 291 300 305 297 299 272 207 170 176 179 174 182 198
124 128 128 137 135 138 139 139 139 141 145 147 148 152 153 155 155 164 169 171 173 173 178 190 196 213 230 243 253 260 266 276 284 279 285 297 186 181 179 184 187 191 201
120 121 130 141 145 138 142 146 148 152 153 155 158 159 158 161 165 179 183 188 187 189 191 205 216 221 233 246 253 255 262 264 265 276 274 214 194 198 189 190 192 201 206
128 137 138 143 142 138 132 149 144 149 149 151 155 159 163 168 180 195 196 204 202 201 201 217 227 236 242 248 253 258 261 254 259 264 249 214 190 199 193 197 197 201 208
141 147 148 144 147 141 147 136 139 152 148 154 159 167 181 198 195 202 208 216 205 207 210 221 229 237 245 247 254 259 243 249 253 264 259 208 199 201 197 203 203 202 206
151 155 159 154 156 153 131 144 146 152 157 178 178 181 201 212 212 213 187 193 200 210 206 218 235 235 233 237 245 246 240 227 241 255 270 202 203 205 209 208 206 211 210
156 156 157 160 168 147 146 159 160 163 176 185 194 186 193 221 226 211 191 202 203 222 222 215 220 239 242 245 242 246 230 218 228 240 225 198 206 215 221 222 219 212 221
158 157 160 163 167 149 151 166 166 171 182 190 190 191 194 218 233 213 195 199 203 206 218 232 224 223 229 241 244 244 258 249 252 250 244 212 219 220 224 228 226 228 228
155 157 158 165 155 154 157 174 174 173 193 188 190 193 198 199 227 240 232 209 184 219 229 240 225 227 223 223 239 255 259 263 247 247 247 242 231 227 225 234 223 234 323
156 156 159 163 161 150 167 186 183 190 190 189 189 189 198 201 214 228 227 250 268 249 253 241 255 283 271 281 272 276 272 263 261 251 251 249 253 234 229 231 221 6 307
149 153 156 161 158 146 142 144 151 167 157 180 178 186 196 200 204 145 99 339 295 295 279 270 256 274 279 271 274 271 270 272 265 248 243 253 91 128 215 228 151 226 254
143 144 146 150 161 150 146 136 152 146 18 274 30 117 164 147 157 142 170 237 266 285 270 241 280 243 283 294 278 264 261 276 277 290 263 268 232 170 207 237 205 223 239
71 135 119 151 151 143 136 131 125 181 254 222 116 103 117 146 172 184 233 242 251 272 296 287 273 341 264 269 290 303 308 310 301 287 283 288 275 218 179 196 201 222 237
157 116 118 125 152 142 144 145 145 177 202 188 157 154 162 167 200 207 218 237 257 268 252 263 316 346 7 355 325 314 303 300 306 318 271 250 248 263 188 205 184 201 220
325 286 121 142 141 154 138 157 145 147 213 187 187 190 194 203 208 216 225 253 259 287 313 344 31 17 40 41 358 303 328 322 273 263 278 263 259 253 263 228 191 213 232
166 185 167 168 153 142 148 141 84 85 44 98 192 221 226 200 197 274 284 21 339 329 343 63 142 124 311 256 206 268 299 249 319 240 261 273 271 271 261 243 204 216 216
153 157 163 159 150 155 159 118 97 98 60 264 34 40 28 55 61 30 66 32 246 277 305 308 150 228 206 285 271 241 237 250 271 299 274 280 268 268 265 261 254 232 226
153 162 156 146 156 167 155 127 128 87 309 8 33 53 69 57 46 47 53 42 37 2 328 341 334 333 308 285 261 310 296 283 255 272 285 291 308 274 270 270 260 260 248
164 157 137 134 137 115 130 125 106 78 49 42 33 62 59 37 32 30 54 39 50 22 23 10 358 359 3 357 349 331 324 324 319 310 302 317 291 273 275 266 280 281 268